Theta_e
303 302 301 301 302 300 300 299 298 298 296 296 294 294 293 293 293 287 282 283 282 284 285 283 285 286 286 285 285 285 285 287 288 287 286 284 282 286 290 292 293 293 294 294 294 294 295 295 294 294 295 295 295 295 295 295 296 297 297 297 298 298 298 299 299 298 299 299 299 299 299 298 299 299
302 302 302 301 301 299 297 298 297 296 296 293 293 293 294 295 293 293 290 290 284 283 284 285 284 285 285 285 284 284 284 287 288 286 286 285 284 287 289 291 292 292 293 293 293 293 294 294 294 294 293 294 294 295 295 295 295 296 296 298 298 298 298 299 298 299 298 298 298 298 298 297 297 298
301 300 299 299 299 297 296 296 294 294 293 293 292 292 293 292 294 295 292 291 286 286 283 284 285 284 284 285 284 284 283 286 287 285 285 284 286 287 288 289 290 291 291 292 292 293 294 293 293 293 293 293 294 295 294 294 295 295 296 297 297 297 298 297 297 297 296 297 298 297 297 297 297 297
300 299 299 298 297 297 296 295 294 294 293 293 292 291 291 292 292 292 291 289 291 283 283 284 284 284 284 284 283 283 283 286 287 284 284 284 286 285 284 287 288 289 290 291 291 292 292 292 292 293 293 293 293 294 294 294 294 295 295 296 296 295 296 295 295 295 295 296 296 296 296 296 296 297
298 297 297 297 297 296 295 294 293 292 292 291 291 291 290 290 289 289 290 289 288 283 283 283 283 283 283 282 284 283 282 283 284 285 283 284 283 283 282 283 285 286 288 289 290 291 291 292 292 292 292 292 292 292 293 293 293 293 294 294 294 294 294 294 294 294 294 294 294 294 294 295 294 294
295 295 296 296 296 295 294 294 293 292 291 290 290 289 289 289 289 289 289 289 289 283 281 282 282 282 284 282 283 282 282 282 282 283 283 283 282 282 282 282 282 285 287 288 290 290 291 291 291 291 291 291 291 291 292 291 292 292 292 291 292 292 292 293 292 292 292 293 294 293 293 294 292 294
294 294 294 295 295 294 292 293 293 291 291 290 289 289 289 289 289 288 289 288 285 283 281 281 281 281 282 282 282 283 283 283 282 282 282 282 282 282 282 282 282 284 287 288 290 290 290 290 290 290 290 290 290 290 290 290 289 290 290 290 289 289 289 290 290 290 291 292 293 293 292 293 294 294
294 294 293 294 294 293 292 292 291 291 290 290 289 289 288 288 288 287 287 287 284 282 280 281 281 282 281 281 282 282 282 281 281 282 281 282 282 282 282 282 281 283 286 288 288 289 289 288 288 288 288 288 288 289 289 288 288 288 288 288 287 287 287 288 288 289 289 290 292 292 292 292 292 292
295 294 294 294 293 292 291 291 290 289 288 289 289 288 288 287 287 286 286 285 285 283 282 281 281 281 281 281 281 282 281 281 281 281 281 281 281 281 281 281 282 284 286 286 286 286 286 286 287 287 287 287 288 287 287 287 287 287 286 285 285 287 287 287 287 287 288 288 288 289 290 291 291 291
294 294 293 293 293 291 291 291 290 288 288 288 287 287 287 287 286 285 284 284 284 284 283 282 280 280 280 280 280 281 282 281 280 280 280 279 280 280 279 280 280 280 280 279 281 282 284 285 285 286 286 286 286 286 286 286 286 285 284 284 285 285 286 286 286 287 286 286 287 288 288 289 290 289
293 293 293 293 292 291 291 291 289 288 287 287 287 287 286 285 284 283 283 283 284 283 282 282 282 281 280 280 279 280 282 282 282 280 279 279 279 278 279 278 279 280 280 282 283 283 283 284 283 284 285 285 285 285 285 285 284 283 283 283 284 285 285 286 286 286 286 286 286 286 286 287 288 288
292 292 292 292 291 291 291 290 289 288 287 286 286 285 284 284 283 283 282 283 283 283 282 281 280 280 280 280 279 279 280 279 279 280 279 278 278 278 277 278 278 279 279 278 279 282 282 282 283 283 283 283 284 284 283 283 282 281 282 283 284 284 284 285 285 285 285 285 285 285 285 285 286 287
291 291 291 291 290 290 289 289 289 288 288 286 285 284 284 283 283 283 283 283 283 282 282 281 281 280 280 280 279 279 279 280 280 279 279 278 278 277 277 278 278 278 277 277 278 279 280 279 279 279 278 279 281 281 282 281 281 281 283 283 284 284 284 284 284 284 284 284 284 284 284 284 284 284
290 290 290 290 288 287 287 287 288 288 288 287 287 284 284 284 284 284 283 283 283 282 281 280 280 279 279 279 280 280 280 280 279 278 278 277 277 277 277 277 278 277 278 278 277 278 279 277 277 277 277 278 279 279 278 278 280 281 283 283 283 283 283 283 283 283 283 283 283 282 282 282 282 282
289 289 289 289 287 287 286 286 287 288 288 287 287 286 286 286 285 284 284 283 283 282 282 281 281 281 280 280 281 281 280 280 279 278 278 278 277 276 275 274 278 278 278 277 275 276 278 277 275 276 277 277 277 278 277 280 281 281 282 282 282 281 281 281 281 281 281 281 281 281 281 281 281 281
289 288 288 287 286 286 286 286 286 287 287 287 287 287 287 288 288 288 286 285 284 284 283 281 282 282 281 280 280 280 280 279 279 279 278 277 276 276 275 276 275 278 279 277 276 275 277 276 276 274 276 277 276 276 278 280 281 281 281 280 280 280 280 280 280 280 280 280 280 280 280 280 280 280
288 287 286 285 285 285 285 285 285 285 285 286 287 287 287 288 289 290 290 289 286 286 285 283 282 282 282 280 280 281 281 281 278 278 277 277 277 277 277 277 277 278 279 277 276 274 276 275 274 274 275 274 274 274 276 278 279 280 279 279 279 279 279 279 279 279 279 279 279 279 279 280 279 279
288 287 286 285 284 284 284 285 285 285 285 285 285 286 285 285 286 288 288 287 286 286 285 284 282 282 283 282 281 281 282 280 278 277 277 278 277 277 277 278 278 278 279 276 275 271 273 273 273 272 272 273 273 273 275 277 278 278 277 278 278 278 278 278 278 278 278 278 278 278 279 279 279 278
287 286 285 285 284 283 284 284 285 284 284 285 285 285 284 284 284 284 284 284 284 284 284 284 283 282 283 282 282 281 282 281 280 280 279 279 279 278 277 275 277 276 276 275 273 266 270 271 270 270 271 271 270 271 273 275 276 276 276 276 277 277 277 277 277 277 277 277 277 278 278 278 278 278
285 285 284 284 283 283 283 285 286 286 285 285 284 283 283 282 282 282 284 285 285 284 283 283 282 282 282 283 281 281 281 281 280 280 278 277 275 275 273 272 273 272 273 274 272 268 268 270 268 268 269 269 268 268 268 272 274 275 275 275 275 276 276 276 276 276 276 277 277 277 277 278 278 277
284 284 284 284 283 283 283 285 287 287 286 284 284 282 282 282 282 282 284 286 286 286 286 286 286 286 287 286 286 285 285 282 280 278 276 275 275 274 273 273 273 271 271 271 272 269 266 266 265 263 266 267 266 267 266 267 272 273 273 274 274 274 275 275 275 275 275 276 276 276 277 277 277 275
283 283 284 283 283 283 283 286 287 287 286 284 283 282 281 280 280 281 283 283 284 286 286 286 286 286 286 286 286 286 285 285 282 278 276 276 275 274 274 272 271 271 269 269 271 265 264 262 263 261 262 262 262 265 266 267 268 271 271 272 272 273 274 274 274 274 274 275 275 275 276 276 275 271
282 282 283 283 283 283 284 287 287 287 285 284 283 282 281 280 279 280 282 281 281 282 282 282 283 283 282 281 281 283 284 284 282 280 278 276 275 273 272 272 270 269 270 269 272 264 259 261 260 260 257 255 257 262 263 265 266 266 267 267 267 271 272 272 272 272 273 274 274 275 275 275 274 270
282 282 282 283 285 285 286 287 287 287 287 284 283 283 282 281 279 281 281 281 281 281 280 280 279 278 278 278 277 276 277 277 277 277 276 275 273 271 270 269 270 268 267 268 270 264 256 257 256 260 259 257 255 258 263 262 265 265 266 265 264 268 269 269 268 270 271 272 273 273 274 274 273 269
280 281 281 282 285 286 287 287 287 287 287 286 284 284 284 283 281 282 280 281 281 279 279 278 277 276 276 275 275 274 274 274 273 274 273 271 271 271 269 267 268 266 266 269 270 260 257 253 255 256 256 256 256 257 261 263 263 265 265 264 264 264 265 265 266 265 268 269 270 272 272 273 273 271
280 281 282 282 285 286 287 287 288 287 287 287 284 285 286 285 284 281 281 280 279 278 278 277 276 274 274 273 272 272 271 270 270 270 270 271 268 267 267 267 264 261 260 263 271 258 255 255 255 253 252 254 256 260 259 260 263 263 264 264 264 264 264 264 264 264 264 264 264 267 269 271 271 272
280 282 282 283 285 286 287 287 288 288 287 286 285 286 286 285 284 281 280 279 278 278 277 276 274 273 273 272 270 269 268 267 267 267 266 266 266 266 266 265 264 263 262 261 263 260 254 251 256 256 255 259 258 258 259 257 257 262 262 262 263 263 264 263 263 263 263 263 264 268 268 268 269 270
281 281 282 284 286 286 287 287 287 287 286 285 286 287 286 284 282 279 279 278 278 277 276 274 273 272 272 270 269 268 267 265 264 264 264 263 263 264 264 264 263 263 262 261 260 259 257 253 255 258 259 259 258 256 256 261 261 260 259 261 262 262 262 263 262 262 263 263 263 263 262 262 263 263
281 283 285 286 287 287 287 287 287 286 285 286 286 286 284 282 279 279 278 277 276 275 274 274 273 272 270 269 268 267 265 264 263 262 262 260 259 260 261 261 260 259 260 260 259 259 257 257 256 256 256 258 257 257 258 257 256 257 259 258 256 259 261 262 262 261 261 262 261 262 261 262 262 263
283 284 286 286 286 287 286 286 284 283 285 286 285 284 282 279 278 278 277 276 275 275 274 273 272 270 267 266 265 265 265 264 262 261 258 260 258 259 259 258 257 255 254 256 258 259 259 259 258 257 257 256 256 254 255 255 255 257 258 257 258 259 260 261 261 261 261 260 260 261 262 262 262 263
283 284 285 285 286 286 285 284 284 284 285 284 283 281 278 277 277 277 276 276 275 274 272 270 268 266 265 264 264 263 263 261 260 261 260 257 256 256 256 257 255 256 256 252 255 258 259 260 260 259 253 253 253 255 255 254 254 254 256 257 257 254 257 259 260 260 260 260 260 260 261 261 262 263
283 284 285 286 285 284 283 282 281 280 279 278 276 275 275 274 274 275 276 274 272 271 269 267 264 262 262 262 261 260 260 260 259 259 257 257 256 256 254 254 254 254 252 250 251 254 258 258 258 258 258 256 254 252 252 252 253 253 255 255 256 257 257 257 258 259 260 259 258 258 259 261 261 262
284 284 283 281 281 280 278 277 276 275 275 273 273 272 272 272 272 272 272 271 269 267 266 265 264 263 262 260 259 259 259 258 257 256 256 255 257 252 252 254 253 252 254 252 251 253 253 253 255 257 257 256 259 257 253 252 253 251 250 253 254 254 256 257 258 258 259 258 257 257 258 260 261 262
282 281 279 279 278 277 277 276 275 274 273 272 271 270 272 270 270 270 270 269 266 265 266 265 264 262 261 259 258 258 258 255 255 256 260 253 253 254 252 253 251 251 253 251 250 251 251 250 253 253 251 253 255 257 256 254 254 250 253 252 253 252 255 255 257 258 258 257 257 257 257 258 260 262
280 279 278 277 277 277 276 275 274 273 272 271 271 270 269 268 269 268 267 265 264 264 263 262 262 261 261 259 258 258 256 257 253 252 253 252 252 252 252 252 251 251 252 251 251 250 251 251 251 251 252 254 253 252 259 256 249 253 251 254 253 252 254 255 256 257 257 257 258 257 257 258 258 260
279 278 277 276 276 275 275 274 273 272 271 271 270 269 268 267 267 266 264 263 263 262 262 261 259 259 258 257 256 255 255 255 253 253 252 251 251 251 250 252 252 252 251 250 251 249 250 250 249 250 250 248 248 250 252 262 261 254 253 253 252 252 254 254 255 256 256 255 257 257 256 256 257 259
277 277 277 276 275 274 274 273 272 272 271 270 270 269 269 267 264 263 263 264 262 261 261 260 258 257 255 255 255 255 255 254 252 252 252 250 251 251 251 252 253 251 251 251 250 250 250 250 250 249 246 247 248 249 253 250 258 263 254 251 253 255 255 255 254 254 256 257 256 257 257 257 257 259
276 276 275 274 273 273 272 272 271 270 270 269 269 267 266 263 261 260 261 261 260 259 261 258 256 255 254 255 256 253 252 252 251 251 252 250 251 250 251 251 249 250 250 249 250 250 249 249 249 249 248 248 247 247 247 251 251 255 263 257 255 256 256 254 254 254 256 257 257 258 259 258 258 260
275 274 273 273 272 271 271 271 271 270 269 268 267 265 262 260 259 259 260 258 258 258 256 256 255 255 255 254 254 255 253 252 251 252 251 250 251 251 249 249 249 248 248 250 249 248 248 248 249 249 249 249 249 248 249 249 251 253 256 263 260 255 254 255 256 257 257 257 257 259 260 261 263 267
270 270 270 270 269 269 268 268 268 268 267 266 264 262 261 260 259 258 258 257 256 255 256 255 255 255 252 253 253 251 251 253 254 252 252 251 251 251 250 250 252 251 249 250 250 250 248 249 250 249 248 251 251 251 250 252 253 253 253 256 263 260 257 258 258 258 257 258 259 258 257 259 258 259
268 268 265 266 267 266 266 265 266 264 263 262 261 262 260 259 259 258 258 256 256 255 253 253 255 253 254 253 252 254 254 252 252 250 250 251 252 252 253 255 252 251 252 252 251 250 251 251 252 259 254 249 248 248 249 249 251 252 252 253 259 261 263 263 260 259 258 259 259 258 257 257 257 258
267 265 263 265 267 264 265 264 263 263 261 261 261 259 257 257 256 260 259 258 255 254 254 253 253 253 252 253 252 253 254 254 252 251 251 251 252 253 255 254 254 252 252 254 253 253 251 251 252 250 247 249 250 249 248 248 250 252 251 252 252 258 260 262 263 264 261 260 259 258 258 258 259 259
265 265 263 261 262 262 262 262 262 262 260 259 259 258 257 256 256 258 254 255 254 254 254 252 252 253 252 251 251 253 253 252 252 252 252 252 253 253 253 254 254 254 253 254 253 250 250 250 250 248 247 248 248 248 249 250 249 250 250 251 252 252 253 259 260 262 264 264 264 262 261 259 258 257
263 263 261 260 261 260 259 261 260 259 259 258 257 257 257 257 257 257 256 256 255 255 253 252 252 253 253 252 251 251 252 252 251 251 252 253 253 254 254 254 253 252 251 252 251 251 249 248 248 248 248 248 247 247 250 247 249 249 250 250 251 251 251 252 253 257 258 260 262 264 266 266 266 267
263 262 261 260 260 258 257 256 257 256 256 256 256 257 256 256 257 256 254 254 253 253 253 253 251 251 251 251 252 253 253 255 254 252 253 253 254 254 254 254 253 253 252 252 250 251 250 249 247 248 247 247 246 247 249 249 250 249 250 249 249 250 250 251 251 251 252 252 258 263 265 266 266 266
Wind_Speed
16 15 16 15 13 11 11 10 10 10 9 9 9 11 13 10 11 5 7 10 10 7 13 9 7 12 10 9 8 8 8 7 7 5 5 5 5 6 8 9 9 8 9 10 11 12 12 11 12 12 12 13 13 14 15 15 16 18 19 20 22 24 24 25 26 26 28 28 29 30 30 30 30 30
9 10 10 10 12 9 9 11 11 9 10 9 10 10 8 8 11 10 11 11 9 5 7 9 6 8 10 8 7 7 7 9 9 6 6 5 4 6 7 8 8 8 9 9 10 11 12 12 12 12 13 13 14 15 15 16 17 18 20 21 23 24 24 24 25 26 27 29 30 31 31 31 31 31
10 11 12 11 10 8 9 9 7 8 8 9 8 8 8 8 11 11 8 10 2 8 7 7 5 6 9 9 8 7 6 8 10 7 6 5 5 6 4 5 6 7 8 9 10 11 12 12 12 13 13 14 15 15 16 17 18 20 21 22 23 23 24 24 25 26 27 28 30 32 31 32 33 33
9 11 12 11 11 9 9 9 9 9 9 9 9 10 10 10 10 8 8 10 11 1 2 5 5 8 9 9 9 8 6 7 11 6 6 5 6 4 2 2 4 6 9 9 10 11 12 13 13 13 14 14 15 16 16 17 19 20 20 21 21 21 22 23 24 25 26 27 28 31 32 32 31 31
9 10 11 10 10 8 9 9 8 8 8 7 7 7 7 8 7 9 10 12 10 1 2 3 5 4 8 7 8 9 7 6 5 5 5 5 4 3 2 1 3 7 7 9 10 11 12 13 13 13 13 14 14 15 16 16 17 18 18 19 20 21 22 23 24 25 26 27 28 30 30 29 30 30
7 7 9 10 9 9 11 9 9 9 8 9 9 8 9 9 10 11 10 12 10 6 2 3 4 4 4 5 5 9 9 7 6 6 5 3 3 3 2 2 3 5 6 8 10 11 12 12 12 12 12 13 13 14 15 15 16 16 17 18 20 21 22 23 23 24 25 26 27 29 29 31 32 30
7 8 10 10 9 7 8 9 10 8 9 8 9 10 9 11 10 9 11 7 6 8 3 4 5 4 4 4 5 6 5 6 6 6 4 4 2 2 3 3 2 4 7 9 10 11 11 11 11 11 11 12 12 12 12 13 15 16 18 18 19 20 21 22 23 24 24 26 27 28 31 31 31 31
8 10 10 10 9 8 10 10 9 8 8 9 9 10 9 10 9 9 8 6 6 4 7 3 6 5 6 4 5 5 6 7 5 5 4 4 3 2 1 1 3 4 8 9 9 10 9 10 9 9 9 10 10 11 13 14 15 16 16 17 18 19 20 21 22 24 25 26 28 28 29 30 30 31
10 10 11 10 9 8 10 9 8 7 10 9 8 9 8 9 7 7 8 7 7 7 8 5 1 3 3 4 5 7 8 5 5 5 3 3 2 1 2 2 3 5 8 8 8 7 7 7 7 8 9 10 11 12 13 14 14 14 15 16 17 18 20 22 23 24 25 25 26 28 28 29 29 30
9 10 10 10 9 9 11 11 10 9 10 8 8 8 7 8 7 8 8 7 7 9 8 9 5 2 5 4 4 4 7 8 5 3 2 1 2 2 2 3 3 2 3 2 2 2 3 4 7 9 9 10 11 11 12 12 12 13 15 16 18 19 21 22 23 23 24 25 26 27 29 29 29 30
9 9 9 9 9 10 11 11 10 10 9 9 9 9 8 8 9 9 9 9 9 9 8 6 8 7 2 4 6 3 5 6 4 5 3 2 2 2 3 2 2 3 3 2 2 1 1 5 5 7 8 10 10 10 10 11 12 14 16 18 19 20 20 21 22 22 23 23 25 26 28 30 31 31
9 9 9 9 9 10 10 10 9 10 10 8 8 7 8 9 10 9 8 8 8 8 8 8 7 6 6 5 5 4 5 5 1 3 3 6 3 4 3 4 3 1 3 2 0 1 2 4 6 6 7 8 9 10 9 10 12 14 17 18 19 19 20 21 22 22 23 24 25 26 27 28 30 30
8 8 8 8 8 10 12 14 11 11 11 10 9 8 9 9 10 9 9 9 9 8 8 6 6 7 7 7 8 6 6 10 8 5 5 3 3 4 3 2 3 3 3 1 1 2 2 2 4 2 3 4 4 5 7 7 10 15 17 18 19 19 20 20 21 23 24 24 24 25 26 27 28 29
8 8 7 7 11 12 12 12 13 13 14 14 12 12 11 11 10 11 10 9 9 9 9 9 10 9 9 7 8 8 5 5 5 6 6 5 4 4 2 1 2 3 4 2 1 2 2 1 3 2 3 4 2 1 3 5 9 14 18 18 17 18 19 21 21 22 22 22 24 24 25 26 27 28
8 7 7 6 7 9 9 10 14 14 15 15 13 15 16 15 15 12 10 9 10 10 9 8 8 9 9 8 7 6 6 5 6 6 6 5 5 3 3 1 1 2 5 1 2 3 2 2 2 3 3 3 2 3 4 12 15 17 16 15 16 18 19 19 20 20 21 22 22 24 25 25 26 27
7 7 6 5 4 6 8 8 9 11 13 13 12 13 13 12 12 15 15 13 9 8 9 8 9 8 8 8 7 7 7 7 6 5 6 5 5 4 3 3 2 1 5 3 2 4 2 2 2 2 3 1 2 4 10 14 15 14 14 15 16 17 17 18 19 19 20 21 22 23 24 25 25 25
7 5 5 5 4 4 8 7 7 7 8 9 10 10 9 9 10 7 7 5 6 8 9 9 7 7 6 8 7 8 8 7 8 6 5 4 4 3 4 3 3 1 3 3 3 3 2 3 0 1 1 3 3 5 9 13 11 12 13 14 15 15 16 17 18 18 20 21 22 23 23 24 24 24
6 6 7 6 5 3 5 5 6 6 7 7 8 7 7 7 8 10 11 12 10 6 7 8 8 5 6 7 7 7 8 10 8 7 6 6 5 5 5 3 3 1 2 4 3 1 2 2 1 1 1 3 4 4 8 9 10 12 13 13 13 15 16 17 18 19 19 20 21 22 23 23 24 24
6 6 6 6 6 5 6 5 7 8 9 10 9 8 8 8 7 7 7 6 6 5 5 5 5 7 5 6 8 8 7 7 6 7 6 6 5 3 3 2 2 4 3 2 2 2 2 1 2 2 2 3 4 3 5 8 10 11 11 12 13 15 16 17 17 18 19 20 20 22 22 23 24 24
5 5 6 6 6 6 7 9 14 11 10 11 11 10 9 9 8 6 6 9 8 7 6 6 7 7 7 9 8 8 7 6 5 6 5 5 4 5 4 5 2 3 2 3 3 2 1 2 2 3 3 3 4 1 3 8 10 10 10 12 14 16 16 16 17 17 18 19 20 21 22 23 25 25
5 6 7 7 7 8 8 12 16 16 15 11 12 12 11 9 9 8 8 13 15 14 13 14 15 15 15 14 14 14 12 7 7 7 6 6 6 6 5 4 4 2 2 2 3 2 2 0 1 2 3 3 2 1 2 2 8 10 9 11 15 16 15 16 17 17 18 19 20 21 22 24 24 24
6 8 12 9 8 8 8 14 18 20 15 12 12 13 13 12 10 8 7 7 8 14 15 16 15 14 13 13 13 12 12 13 9 8 8 6 6 6 5 4 2 2 2 0 1 1 2 0 0 1 4 3 1 3 1 2 5 8 7 11 15 15 15 16 16 17 17 18 19 20 22 23 23 14
5 5 7 10 9 9 12 20 21 22 15 12 12 12 12 11 10 9 10 10 10 9 8 8 8 7 9 8 7 6 10 10 8 4 6 6 7 6 5 4 2 1 2 1 1 1 2 2 2 2 3 2 3 1 2 4 4 4 0 4 6 13 13 14 14 16 17 18 19 20 21 22 20 12
4 6 6 8 13 13 16 20 22 22 17 12 11 11 12 13 11 8 9 8 9 9 8 8 7 8 8 7 7 5 6 6 5 5 3 4 5 6 6 5 6 4 2 0 2 2 1 2 1 1 2 1 2 1 1 3 4 2 2 4 3 8 11 11 10 15 15 17 19 20 20 21 21 12
6 6 6 6 13 17 19 21 22 21 17 16 13 12 11 9 12 13 9 10 11 9 8 8 7 7 6 6 5 5 5 4 4 4 4 3 2 5 6 6 5 4 1 2 4 3 2 1 0 1 0 1 2 2 2 1 4 2 2 4 5 6 5 5 6 7 11 16 16 18 18 20 21 16
6 6 6 6 12 18 19 20 22 20 19 18 10 10 12 17 22 12 9 9 8 8 7 7 7 6 6 6 5 5 5 4 4 4 4 4 4 2 3 6 6 4 3 2 4 3 3 1 5 1 1 1 3 1 4 3 2 1 6 5 3 5 5 6 6 6 7 7 7 12 15 19 19 19
7 6 6 7 14 18 20 22 23 21 21 16 9 16 19 21 22 14 9 9 9 8 7 7 8 7 6 6 6 5 5 3 4 4 4 4 5 5 4 3 2 4 3 2 2 4 3 1 2 4 1 1 1 3 2 2 3 4 7 5 5 5 3 4 5 7 8 8 8 16 14 15 16 18
7 8 8 9 18 18 19 22 22 21 18 10 18 19 21 22 17 9 9 8 8 8 8 7 7 6 5 6 6 5 5 5 4 5 4 5 5 5 4 5 5 5 4 3 2 3 3 3 0 1 4 3 1 2 4 4 3 5 6 7 6 3 5 4 6 7 7 8 8 8 8 8 8 9
7 9 13 17 19 19 20 22 22 18 17 19 19 21 22 17 9 9 9 9 9 9 9 8 7 6 6 5 5 5 6 5 5 5 5 5 5 5 6 5 4 3 3 2 2 2 3 3 1 0 1 1 2 3 2 5 2 4 5 6 5 3 5 4 6 7 8 8 7 7 7 8 8 8
14 16 17 21 20 19 18 14 10 9 11 18 20 20 18 9 9 9 9 8 9 9 8 8 8 7 6 5 6 6 5 6 6 5 5 6 4 5 6 5 3 2 2 2 2 3 3 2 1 1 1 1 1 3 3 2 5 4 5 3 6 6 1 5 6 7 7 8 8 7 7 7 8 8
10 13 13 11 14 12 15 14 13 12 13 13 12 9 8 7 8 8 9 10 9 8 8 7 6 6 6 6 6 6 5 5 3 3 6 5 3 3 2 5 2 1 1 2 2 2 2 2 1 2 1 2 2 3 3 2 5 5 6 4 3 4 6 6 5 6 7 7 8 8 6 6 7 7
8 9 10 13 11 11 11 10 7 7 7 7 8 7 7 6 6 6 7 6 5 5 6 6 7 7 6 6 6 5 5 5 4 3 5 5 3 2 3 3 3 1 1 1 2 3 3 2 1 1 1 3 3 4 1 2 6 6 6 4 2 4 3 6 7 7 6 7 8 8 7 5 7 7
9 9 8 8 9 9 9 9 8 8 8 6 6 7 7 6 6 7 7 8 7 7 8 8 9 8 6 6 4 5 6 4 4 3 5 2 5 1 1 5 3 3 4 3 1 4 4 3 2 1 2 3 5 5 4 5 7 4 5 5 3 4 4 5 5 7 8 7 6 8 9 6 5 6
8 8 8 9 10 10 10 10 10 9 9 8 7 5 6 6 6 6 5 5 6 6 7 8 9 8 7 6 6 6 6 3 2 1 4 2 2 4 3 4 4 1 1 2 2 2 4 4 5 4 2 2 4 7 7 7 7 4 5 3 3 4 4 3 5 6 6 5 8 9 9 9 6 5
8 9 8 8 8 8 9 9 9 8 8 7 7 6 5 5 6 6 6 6 6 7 7 7 7 7 7 7 6 6 5 6 3 2 2 3 2 3 4 4 3 1 1 1 2 2 1 3 5 5 5 6 6 3 7 8 2 5 2 4 2 2 4 4 5 6 6 6 4 7 9 9 8 6
7 6 7 7 6 6 7 6 6 7 7 7 7 7 7 6 5 7 6 6 7 7 7 8 8 7 7 7 6 6 5 6 4 2 1 1 3 1 1 2 2 2 1 2 2 2 1 2 2 2 3 4 5 5 3 10 8 5 1 4 5 3 4 4 5 5 5 5 4 5 8 10 11 10
7 6 5 6 5 6 6 6 7 6 6 6 6 6 7 7 5 4 5 6 6 6 7 8 7 7 7 6 7 6 6 7 5 3 3 1 1 2 3 1 2 1 1 3 1 1 1 0 0 3 2 1 0 4 7 4 7 5 4 0 3 4 5 5 6 6 5 4 5 4 6 8 10 10
6 5 6 5 5 4 5 5 5 5 5 5 5 5 5 5 5 5 5 6 6 6 7 7 7 6 6 7 7 6 4 3 3 4 4 3 3 4 4 5 4 2 3 3 0 1 0 2 3 4 4 4 3 5 4 6 4 5 5 4 2 7 5 5 6 7 7 5 6 6 6 7 8 8
6 6 6 6 6 5 5 5 6 6 5 6 6 6 6 6 5 5 5 5 6 6 6 7 7 7 7 6 6 7 6 5 4 4 4 5 5 5 4 3 3 2 1 3 1 1 0 2 4 4 5 5 5 4 2 3 7 6 6 10 7 5 6 4 7 7 7 7 7 6 6 7 10 16
4 3 4 5 5 5 4 4 4 4 6 5 6 6 7 7 6 6 6 6 6 5 6 7 6 6 5 7 7 6 4 6 6 6 6 6 4 4 5 4 5 4 2 3 3 5 3 6 5 6 5 6 5 4 4 5 6 7 8 8 9 5 5 4 6 6 7 7 7 8 9 7 6 5
5 5 4 5 5 5 5 5 5 5 5 6 6 6 6 7 7 6 6 6 7 7 6 6 6 6 6 7 6 7 6 4 5 4 4 4 5 7 7 4 3 3 4 6 5 4 6 7 6 5 1 1 1 2 2 4 7 6 6 6 4 9 12 11 7 7 8 9 7 6 8 8 8 7
5 5 4 4 5 5 6 6 6 6 6 6 7 7 7 6 6 7 7 7 6 5 6 6 6 6 6 6 6 6 6 6 6 5 6 5 5 4 6 5 5 4 5 6 5 5 3 0 2 1 1 1 1 1 6 5 8 8 6 6 6 7 9 13 15 13 9 7 5 6 6 6 5 6
5 5 5 4 5 6 6 6 6 7 7 6 7 7 7 6 7 7 6 6 6 6 6 6 6 6 6 6 6 6 6 5 6 6 5 5 5 6 5 6 6 6 6 5 3 1 3 2 1 0 1 1 3 3 7 6 5 6 7 7 8 7 7 10 13 15 16 16 13 8 5 6 6 6
5 5 4 5 5 5 5 6 6 6 7 7 7 7 7 8 7 7 7 7 7 6 6 6 6 6 6 6 6 5 6 6 5 5 6 5 5 6 5 4 4 4 4 5 4 5 2 2 1 1 1 4 3 2 7 4 6 6 6 7 6 6 10 8 7 9 10 10 10 10 11 12 12 15
5 5 5 4 4 4 4 5 6 6 6 6 6 7 7 7 6 6 5 5 5 6 6 6 6 6 6 6 6 6 5 5 5 4 4 4 4 5 5 5 4 4 5 5 4 4 2 2 2 0 2 4 2 4 6 4 6 6 6 5 8 7 6 6 8 9 9 10 9 10 11 13 13 14
Wind_Direction
215 214 213 217 222 218 215 217 210 206 204 206 197 196 197 197 226 213 226 228 226 213 204 212 208 199 190 187 184 181 188 189 182 182 176 183 192 216 223 233 246 260 270 279 284 287 292 297 301 302 305 307 307 306 305 305 306 307 310 311 310 310 312 310 309 311 312 311 312 313 312 310 311 311
226 229 226 223 228 218 213 217 213 204 205 201 196 197 206 200 212 223 231 251 183 214 198 208 195 181 189 182 177 176 181 175 172 179 182 189 192 204 216 233 249 260 270 280 286 289 290 293 297 303 306 306 307 307 308 309 310 311 310 310 311 312 312 312 312 313 313 312 312 313 313 312 313 312
217 219 222 221 227 213 217 217 209 208 199 202 196 199 204 209 217 227 226 259 216 179 195 210 169 156 184 178 172 171 167 166 171 174 176 180 181 181 206 228 252 265 273 278 284 288 293 298 303 304 305 307 308 310 311 311 311 310 310 312 313 313 314 315 315 315 315 315 315 312 314 317 315 313
220 223 225 222 221 216 216 215 211 206 206 201 197 199 203 214 216 212 218 228 246 159 206 179 160 160 171 172 173 172 154 163 168 160 159 153 145 161 170 220 255 265 269 279 286 292 297 300 301 303 305 308 310 311 311 310 310 311 312 314 316 318 318 316 316 315 314 313 313 311 314 314 314 314
220 220 224 223 221 211 215 217 211 207 204 197 201 198 200 213 207 200 213 226 239 62 16 130 152 163 150 173 183 164 154 145 145 136 135 141 149 151 148 141 240 251 266 277 285 290 293 297 302 306 309 311 313 315 313 314 315 315 317 322 323 322 320 319 318 317 316 314 313 312 314 314 315 316
225 225 226 226 220 207 215 211 211 206 199 197 198 195 195 205 206 207 207 226 224 191 92 91 90 113 162 140 159 166 153 146 134 140 138 125 130 133 126 181 221 243 266 278 280 284 291 301 308 313 316 317 320 320 321 323 324 325 328 328 326 325 324 321 320 318 316 314 313 313 315 317 317 317
218 223 225 229 219 208 212 214 214 200 202 195 198 204 201 207 208 201 209 192 190 159 148 138 143 143 160 144 160 151 135 134 140 141 135 131 107 128 177 205 263 278 271 274 281 291 303 309 314 320 324 328 331 333 331 334 334 333 331 329 330 328 325 322 320 318 317 317 316 315 317 320 320 318
218 221 225 230 221 208 214 216 213 206 202 196 203 204 202 204 202 197 189 187 152 148 140 182 163 154 147 90 108 105 98 106 102 119 99 99 137 144 135 194 247 264 271 279 290 298 307 319 332 338 340 339 338 336 337 336 336 336 335 335 332 327 324 323 322 321 321 320 319 318 319 319 319 318
223 222 224 227 217 208 216 219 214 204 205 205 201 203 195 195 193 177 183 178 155 149 155 137 113 127 97 94 105 129 121 103 93 86 106 120 134 167 196 189 236 259 277 285 288 308 332 345 353 353 346 338 336 338 339 340 342 341 340 336 330 327 325 324 324 324 322 321 321 321 322 323 323 322
224 223 225 223 211 208 210 216 212 204 207 199 201 202 193 187 167 172 175 169 160 155 159 153 135 152 137 110 92 136 134 136 119 103 97 96 153 165 201 214 206 211 219 251 302 326 330 341 358 346 339 339 343 344 341 340 343 346 341 333 329 328 327 327 326 325 324 324 323 323 325 327 326 324
226 223 223 220 210 211 212 213 206 200 199 194 201 196 188 173 167 172 173 167 160 157 153 161 163 153 116 130 127 93 99 94 124 139 138 202 169 167 187 203 198 180 219 242 218 217 343 354 352 345 347 346 341 337 338 346 351 347 337 331 329 328 328 327 326 325 325 325 326 326 327 327 326 324
226 222 220 217 211 211 212 209 204 189 192 185 190 184 171 172 170 170 165 166 159 155 157 163 160 154 143 98 71 89 86 86 60 170 161 172 161 173 155 189 165 209 141 169 347 336 24 5 342 339 340 329 333 338 353 3 354 339 329 328 330 330 329 327 326 327 329 328 327 325 324 325 325 326
227 225 220 217 214 211 213 209 200 194 184 173 180 182 173 171 169 162 163 164 157 157 156 150 143 144 116 120 131 142 166 190 185 152 155 145 146 128 129 225 196 184 143 129 74 349 13 332 299 315 317 303 324 350 16 356 336 328 331 333 332 331 330 329 330 331 330 329 328 326 326 326 327 328
225 226 219 218 215 212 210 204 197 192 188 189 183 173 172 168 167 166 162 163 162 158 160 157 150 155 164 165 168 169 165 124 98 124 155 150 152 114 152 205 183 149 131 116 16 293 269 181 282 323 296 287 353 32 3 325 333 332 333 333 334 335 335 334 333 333 332 332 331 331 330 329 328 327
227 223 220 220 211 208 203 200 194 192 191 192 189 179 176 173 165 161 161 161 160 160 157 151 155 166 168 176 168 166 147 145 148 152 158 151 145 160 157 225 327 149 119 123 149 274 264 141 217 280 271 284 359 26 350 340 333 330 333 340 341 339 336 336 335 335 335 335 335 332 329 328 328 329
226 224 218 213 195 197 197 186 188 190 190 189 184 181 186 182 175 167 162 155 154 154 146 155 170 162 172 157 159 156 150 156 144 143 152 155 159 162 151 151 163 210 128 143 160 251 285 127 200 220 272 26 52 6 353 339 331 336 345 347 344 341 339 340 340 340 339 338 335 333 332 331 332 333
219 215 206 199 196 198 187 178 176 172 175 174 163 159 148 139 141 125 104 112 141 148 147 155 158 168 140 151 174 165 147 140 144 147 153 160 155 162 159 185 151 258 112 119 180 198 260 129 190 213 319 40 8 4 344 332 341 350 350 349 345 345 345 343 342 341 340 338 336 335 335 335 336 340
210 202 195 189 187 166 166 168 163 153 149 142 136 128 124 122 104 93 92 91 93 104 133 145 162 161 155 154 142 144 142 148 160 158 166 160 164 175 180 166 157 167 111 142 132 318 272 67 99 273 302 18 354 349 329 345 1 356 355 351 350 348 345 343 342 342 341 339 338 337 337 337 338 341
204 194 188 182 174 161 165 167 160 155 153 147 144 132 121 104 93 101 110 117 125 123 123 131 127 129 117 119 132 140 144 148 149 159 159 163 162 128 78 51 139 90 38 62 111 184 230 86 66 284 333 340 328 324 341 9 5 1 355 352 351 348 345 344 344 344 341 339 339 337 339 339 339 343
189 176 169 165 163 163 165 169 165 163 153 148 140 125 109 97 89 81 102 114 105 110 108 114 129 132 134 132 134 138 139 140 132 111 84 85 98 129 156 195 199 134 52 71 106 178 234 119 115 257 296 293 291 349 55 11 5 4 359 352 350 348 345 344 344 342 341 339 338 338 339 339 341 344
171 169 169 166 165 169 171 172 167 158 152 144 141 129 118 117 114 116 115 112 113 116 119 124 126 129 128 131 136 147 150 144 132 119 125 165 154 159 182 202 179 183 101 52 83 131 224 222 119 297 280 265 271 185 98 12 3 5 357 351 348 344 344 343 342 341 340 339 339 340 341 342 344 347
178 181 176 169 162 159 162 169 163 162 158 148 144 138 133 130 124 123 119 110 116 119 119 123 126 127 132 141 147 152 159 155 143 151 177 181 158 183 178 194 150 141 100 351 107 93 227 164 33 6 292 339 214 162 44 53 3 357 350 347 344 340 343 343 340 339 338 339 340 342 343 344 347 349
169 159 167 161 159 164 167 170 168 164 161 153 149 143 137 132 132 147 140 133 130 132 126 123 122 110 98 86 78 103 121 138 154 161 165 154 164 172 169 145 106 316 207 202 268 118 269 62 298 104 22 359 284 182 82 12 351 314 354 348 334 331 342 339 337 336 337 340 342 345 346 347 350 347
146 154 157 164 164 164 168 173 170 168 161 152 146 143 149 154 157 147 132 138 137 133 125 118 105 104 103 96 91 79 80 80 82 100 111 150 149 157 162 168 167 187 185 170 130 132 253 127 257 23 161 148 291 292 329 356 306 282 337 339 313 329 336 335 333 332 336 342 345 347 347 349 352 346
158 161 162 161 167 167 173 175 174 165 155 156 159 164 161 156 142 138 132 143 133 123 122 117 112 113 106 105 101 97 94 80 66 67 70 64 102 140 154 161 181 183 164 201 134 102 209 134 178 16 346 111 234 348 278 299 283 310 349 330 320 322 325 321 328 322 335 342 346 346 346 349 349 348
163 165 163 165 175 174 175 174 169 162 162 159 153 164 150 133 141 142 139 134 130 126 129 129 126 124 121 119 113 99 94 88 84 82 76 77 72 68 138 155 162 176 220 255 157 127 113 305 175 126 265 94 289 282 306 303 240 95 328 320 313 311 319 324 326 330 337 335 338 342 345 346 345 345
159 152 160 167 173 173 173 169 167 164 160 158 152 144 139 145 144 136 134 134 136 140 138 136 129 119 134 131 128 123 115 104 95 92 86 80 84 68 57 64 129 156 160 134 91 133 113 189 207 136 201 245 264 286 263 290 305 343 314 315 318 309 311 320 330 339 336 336 332 339 342 339 340 341
160 164 168 167 171 171 166 165 165 160 156 148 151 145 146 144 138 132 134 142 146 143 144 146 149 146 144 130 134 141 136 129 115 100 90 76 71 84 77 73 79 91 110 117 108 109 119 134 185 164 150 158 187 274 289 297 312 305 306 305 302 276 333 325 341 337 334 334 330 338 334 332 334 334
166 166 163 163 161 160 159 162 156 150 149 150 148 145 141 136 133 142 147 148 149 155 163 162 152 151 150 140 130 125 122 120 104 96 70 70 69 74 79 66 57 43 62 65 90 91 126 130 161 136 112 187 178 261 282 274 300 292 304 320 312 323 309 339 344 338 337 333 331 330 330 328 324 327
159 160 162 163 157 155 155 153 142 145 149 145 143 141 139 139 145 151 149 151 160 168 162 163 162 149 126 114 124 126 130 123 129 120 110 109 82 104 122 98 65 36 28 23 62 79 85 99 139 131 90 310 201 225 241 277 294 276 293 293 283 302 262 10 334 342 338 330 322 321 315 315 313 320
157 158 158 159 154 146 139 133 133 133 137 138 137 130 133 143 150 154 163 166 165 159 155 146 132 125 114 108 118 137 131 124 124 120 131 122 138 115 117 125 154 126 359 0 9 45 55 58 76 124 122 283 323 220 238 239 266 280 287 288 327 319 306 327 330 334 333 323 313 308 310 310 310 314
154 152 152 149 141 134 130 129 120 111 103 115 119 126 131 135 134 128 114 95 101 115 119 112 112 106 123 136 137 124 124 134 124 117 121 128 133 126 127 123 207 232 291 334 338 355 37 35 31 336 179 180 224 282 355 225 238 258 277 282 281 294 302 318 324 326 330 320 314 313 311 313 311 312
150 155 148 138 135 129 128 123 123 120 116 104 115 127 136 138 139 138 152 156 150 139 133 141 142 138 134 129 129 132 123 138 125 77 98 71 128 84 112 190 194 165 197 260 330 329 341 337 341 289 239 235 227 212 199 269 275 221 230 268 312 300 302 309 317 318 325 319 311 309 309 312 300 308
153 149 144 147 145 143 142 144 144 145 142 143 140 143 141 134 134 137 132 130 135 142 142 142 137 143 142 144 149 148 146 125 92 104 130 137 131 153 185 196 226 227 164 237 291 304 323 334 343 338 349 289 246 215 194 203 248 253 230 265 290 302 290 306 309 310 316 309 313 313 313 315 316 315
154 152 151 150 148 149 147 147 147 144 146 150 144 145 136 131 143 142 136 138 133 136 134 132 132 141 151 156 155 154 155 148 132 64 49 105 126 169 173 184 226 221 196 272 297 297 26 342 8 358 343 358 359 313 214 181 155 242 336 302 259 278 296 312 311 310 310 304 304 303 305 303 307 317
153 154 149 148 149 146 144 142 136 145 149 154 153 144 144 155 152 153 150 148 142 140 138 136 141 148 148 149 152 145 138 132 131 135 135 131 156 90 119 194 197 221 194 207 248 304 49 360 54 53 25 339 14 334 321 200 187 160 189 282 315 314 294 303 298 299 300 293 289 301 304 309 308 317
147 143 147 148 148 153 150 149 152 159 156 153 151 156 158 154 143 120 124 132 133 139 141 135 142 145 141 141 140 138 138 139 156 163 178 174 127 142 168 236 216 198 213 253 207 305 78 39 98 119 102 44 22 258 261 314 290 289 135 255 302 303 308 312 310 304 290 278 284 281 291 298 298 304
152 146 148 146 156 152 136 144 143 147 140 136 130 123 108 108 108 114 118 126 134 133 134 131 139 138 143 146 137 137 132 131 130 157 172 149 162 202 199 206 226 215 213 265 314 259 114 167 182 179 147 188 228 260 287 302 334 323 126 124 316 303 307 310 307 301 303 295 290 291 289 287 291 297
150 153 157 159 161 156 156 159 158 153 141 137 141 138 129 121 118 124 133 137 136 133 124 129 145 152 149 147 141 145 150 143 160 184 181 189 193 191 207 207 222 251 129 265 310 305 347 208 208 193 170 174 196 218 202 255 276 272 297 305 298 285 290 287 291 294 297 303 300 285 273 271 285 296
107 112 131 137 140 130 109 113 120 129 137 136 132 130 136 141 142 140 141 147 142 142 139 148 143 133 130 135 131 117 131 166 179 182 188 195 198 198 198 196 199 190 172 234 247 255 232 237 220 207 212 213 224 238 224 256 273 293 295 303 294 273 270 284 286 298 295 297 301 305 302 303 292 292
101 110 97 111 111 115 123 121 126 124 129 129 128 131 132 139 144 158 160 159 150 146 141 147 149 146 145 142 147 151 165 179 177 182 186 190 195 184 195 185 204 180 196 245 223 235 235 231 225 248 183 233 348 7 327 313 290 292 306 293 290 300 298 297 299 293 289 300 296 293 295 306 307 307
108 102 96 107 130 132 135 138 140 137 138 143 142 141 140 145 153 152 154 149 143 144 138 147 148 141 139 147 150 155 167 182 182 192 189 187 203 208 198 189 203 209 192 233 231 225 243 290 9 27 5 338 316 225 253 243 276 293 286 298 298 290 299 302 302 298 294 283 278 287 298 291 284 285
109 118 120 113 114 131 139 142 147 145 146 144 143 143 138 138 142 145 144 149 156 154 157 151 150 147 148 153 163 166 169 181 180 188 190 191 193 200 211 210 210 205 207 239 251 245 279 315 342 23 21 158 233 184 247 261 259 284 294 303 305 315 308 308 309 307 303 300 292 277 252 269 307 301
116 121 121 132 133 139 144 147 146 147 148 150 145 145 146 147 157 167 163 161 164 171 164 155 156 154 159 160 154 160 175 182 170 177 194 202 199 205 208 214 208 212 214 228 264 274 280 300 277 175 209 251 208 210 257 274 280 269 277 284 299 314 310 314 309 305 300 295 294 295 292 289 288 291
131 132 134 129 129 127 137 137 139 139 137 136 142 149 152 155 154 155 158 156 160 156 159 160 160 161 152 149 151 178 195 178 171 190 186 196 204 202 207 201 206 211 217 213 205 261 234 240 299 153 215 248 208 216 248 249 267 289 289 299 299 302 302 317 326 330 331 324 310 318 320 315 312 311